Tracking 27380 objects as of 6-Jun-2023
HD Live streaming from Space Station
objects crossing your sky now

PALAPA B4

Track PALAPA B4 now!
PALAPA B4 is classified as:


NORAD ID: 21964
Int'l Code: 1992-027A
Perigee: 35,863.5 km
Apogee: 35,914.1 km
Inclination: 12.1 °
Period: 1,441.0 minutes
Semi major axis: 42259 km
RCS: 12.5892 m2 (large)
Launch date: May 14, 1992
Source: Indonesia (INDO)
Launch site: AIR FORCE EASTERN TEST RANGE (AFETR)

Palapa B-4 was an Indonesian communications spacecraft launched by a Delta rocket.
Your satellite tracking list
Your tracking list is empty




NASA's NSSDC Master Catalog

Two Line Element Set (TLE):
1 21964U 92027A   23156.46033507 -.00000200  00000-0  00000-0 0  9990
2 21964  12.1290  24.8704 0005987  46.0286 267.7463  0.99933648 36116
Source of the keplerian elements: AFSPC